Time,TemperatureF,DewpointF,PressureIn,WindDirection,WindDirectionDegrees,WindSpeedMPH,WindSpeedGustMPH,Humidity,HourlyPrecipIn,Conditions,Clouds,dailyrainin,SoftwareType,DateUTC
2013-06-01 00:09:00,69.2,68.0,29.61,SW,224,1.0,3.0,95,0.00,,,0.00,weatherlink.com 1.10,2013-06-01 05:09:00,
2013-06-01 00:24:00,69.0,68.0,29.59,ESE,116,2.0,2.0,96,0.00,,,0.00,weatherlink.com 1.10,2013-06-01 05:24:00,
2013-06-01 00:39:00,68.8,68.0,29.59,SSE,159,0.0,3.0,97,0.00,,,0.00,weatherlink.com 1.10,2013-06-01 05:39:00,
2013-06-01 00:54:00,69.0,68.0,29.60,SSE,162,1.0,3.0,97,0.00,,,0.00,weatherlink.com 1.10,2013-06-01 05:54:00,
2013-06-01 01:09:00,69.4,68.0,29.61,WSW,249,2.0,4.0,96,0.00,,,0.00,weatherlink.com 1.10,2013-06-01 06:09:00,
2013-06-01 01:24:00,69.5,68.0,29.61,SSW,208,2.0,6.0,96,0.00,,,0.00,weatherlink.com 1.10,2013-06-01 06:24:00,
2013-06-01 01:39:00,69.7,68.0,29.60,WSW,243,3.0,10.0,95,0.00,,,0.00,weatherlink.com 1.10,2013-06-01 06:39:00,
2013-06-01 01:54:00,69.4,68.0,29.60,SW,221,2.0,8.0,96,0.00,,,0.00,weatherlink.com 1.10,2013-06-01 06:54:00,
2013-06-01 02:09:00,69.0,68.0,29.59,SW,214,8.0,10.0,96,0.00,,,0.00,weatherlink.com 1.10,2013-06-01 07:09:00,
2013-06-01 02:24:00,68.9,68.0,29.59,SSW,203,1.0,7.0,97,0.00,,,0.00,weatherlink.com 1.10,2013-06-01 07:24:00,
2013-06-01 02:39:00,68.6,68.0,29.58,SW,232,3.0,6.0,97,0.00,,,0.00,weatherlink.com 1.10,2013-06-01 07:39:00,
2013-06-01 02:54:00,68.3,68.0,29.58,SSW,194,2.0,5.0,97,0.00,,,0.00,weatherlink.com 1.10,2013-06-01 07:54:00,
2013-06-01 03:09:00,68.0,67.0,29.59,SW,225,0.0,3.0,97,0.00,,,0.00,weatherlink.com 1.10,2013-06-01 08:09:00,
2013-06-01 03:24:00,67.9,67.0,29.59,SW,228,0.0,2.0,97,0.00,,,0.00,weatherlink.com 1.10,2013-06-01 08:24:00,
2013-06-01 03:39:00,67.4,67.0,29.58,SSW,198,2.0,2.0,98,0.00,,,0.00,weatherlink.com 1.10,2013-06-01 08:39:00,
2013-06-01 03:54:00,67.3,67.0,29.58,SW,226,0.0,3.0,98,0.00,,,0.00,weatherlink.com 1.10,2013-06-01 08:54:00,
2013-06-01 04:09:00,67.2,67.0,29.58,SW,221,0.0,5.0,98,0.00,,,0.00,weatherlink.com 1.10,2013-06-01 09:09:00,
2013-06-01 04:24:00,66.9,66.0,29.58,SSW,197,1.0,5.0,97,0.00,,,0.00,weatherlink.com 1.10,2013-06-01 09:24:00,
2013-06-01 04:39:00,66.6,66.0,29.59,SSW,193,0.0,3.0,98,0.00,,,0.00,weatherlink.com 1.10,2013-06-01 09:39:00,
2013-06-01 04:54:00,66.2,66.0,29.59,SW,218,3.0,5.0,98,0.00,,,0.00,weatherlink.com 1.10,2013-06-01 09:54:00,
2013-06-01 05:09:00,66.3,66.0,29.59,East,93,2.0,5.0,98,0.00,,,0.00,weatherlink.com 1.10,2013-06-01 10:09:00,
2013-06-01 05:24:00,66.1,66.0,29.59,South,181,0.0,4.0,98,0.00,,,0.00,weatherlink.com 1.10,2013-06-01 10:24:00,
2013-06-01 05:39:00,66.1,66.0,29.59,SW,219,2.0,7.0,98,0.00,,,0.00,weatherlink.com 1.10,2013-06-01 10:39:00,
2013-06-01 05:54:00,66.2,66.0,29.59,SW,236,11.0,11.0,98,0.00,,,0.00,weatherlink.com 1.10,2013-06-01 10:54:00,
2013-06-01 06:09:00,66.4,66.0,29.59,SW,226,9.0,9.0,98,0.00,,,0.00,weatherlink.com 1.10,2013-06-01 11:09:00,
2013-06-01 06:24:00,66.7,66.0,29.59,SW,224,4.0,9.0,97,0.00,,,0.00,weatherlink.com 1.10,2013-06-01 11:24:00,
2013-06-01 06:39:00,66.9,66.0,29.59,SW,228,7.0,10.0,97,0.00,,,0.00,weatherlink.com 1.10,2013-06-01 11:39:00,
2013-06-01 06:54:00,67.1,66.0,29.59,SW,226,5.0,8.0,96,0.00,,,0.00,weatherlink.com 1.10,2013-06-01 11:54:00,
2013-06-01 07:09:00,67.4,66.0,29.59,SW,224,6.0,8.0,96,0.00,,,0.00,weatherlink.com 1.10,2013-06-01 12:09:00,
2013-06-01 07:24:00,67.7,67.0,29.60,SW,225,4.0,11.0,96,0.00,,,0.00,weatherlink.com 1.10,2013-06-01 12:24:00,
2013-06-01 07:39:00,68.2,67.0,29.60,WSW,257,3.0,8.0,95,0.00,,,0.00,weatherlink.com 1.10,2013-06-01 12:39:00,
2013-06-01 07:54:00,68.6,67.0,29.60,West,259,6.0,10.0,94,0.00,,,0.00,weatherlink.com 1.10,2013-06-01 12:54:00,
2013-06-01 08:09:00,69.0,67.0,29.60,SW,222,7.0,12.0,93,0.00,,,0.00,weatherlink.com 1.10,2013-06-01 13:09:00,
2013-06-01 08:24:00,69.3,67.0,29.60,SW,214,3.0,7.0,91,0.00,,,0.00,weatherlink.com 1.10,2013-06-01 13:24:00,
2013-06-01 08:40:00,69.8,67.0,29.60,SW,231,2.0,8.0,90,0.00,,,0.00,weatherlink.com 1.10,2013-06-01 13:40:00,
2013-06-01 08:55:00,70.6,67.0,29.60,South,171,3.0,7.0,88,0.00,,,0.00,weatherlink.com 1.10,2013-06-01 13:55:00,
2013-06-01 09:10:00,70.6,67.0,29.61,SW,214,5.0,12.0,88,0.00,,,0.00,weatherlink.com 1.10,2013-06-01 14:10:00,
2013-06-01 09:25:00,71.7,68.0,29.61,SW,229,4.0,9.0,87,0.00,,,0.00,weatherlink.com 1.10,2013-06-01 14:25:00,
2013-06-01 09:40:00,72.0,68.0,29.61,SW,229,3.0,14.0,86,0.00,,,0.00,weatherlink.com 1.10,2013-06-01 14:40:00,
2013-06-01 09:55:00,72.0,68.0,29.60,SW,226,12.0,12.0,87,0.00,,,0.00,weatherlink.com 1.10,2013-06-01 14:55:00,
2013-06-01 10:10:00,71.8,68.0,29.60,SW,221,5.0,12.0,86,0.00,,,0.00,weatherlink.com 1.10,2013-06-01 15:10:00,
2013-06-01 10:25:00,71.5,68.0,29.60,SW,219,3.0,13.0,87,0.00,,,0.00,weatherlink.com 1.10,2013-06-01 15:25:00,
2013-06-01 10:40:00,72.2,68.0,29.60,SSW,197,10.0,10.0,86,0.00,,,0.00,weatherlink.com 1.10,2013-06-01 15:40:00,
2013-06-01 10:55:00,74.2,68.0,29.60,WSW,257,4.0,13.0,82,0.00,,,0.00,weatherlink.com 1.10,2013-06-01 15:55:00,
2013-06-01 11:10:00,74.1,67.0,29.61,West,260,7.0,12.0,79,0.00,,,0.00,weatherlink.com 1.10,2013-06-01 16:10:00,
2013-06-01 11:25:00,73.8,65.0,29.61,WSW,240,8.0,17.0,75,0.00,,,0.00,weatherlink.com 1.10,2013-06-01 16:25:00,
2013-06-01 11:40:00,74.5,65.0,29.60,SSE,159,4.0,13.0,73,0.00,,,0.00,weatherlink.com 1.10,2013-06-01 16:40:00,
2013-06-01 11:55:00,74.6,65.0,29.61,SW,236,6.0,16.0,72,0.00,,,0.00,weatherlink.com 1.10,2013-06-01 16:55:00,
2013-06-01 12:10:00,75.0,64.0,29.60,SW,231,5.0,16.0,68,0.00,,,0.00,weatherlink.com 1.10,2013-06-01 17:10:00,
2013-06-01 12:25:00,75.3,63.0,29.61,SW,231,6.0,13.0,66,0.00,,,0.00,weatherlink.com 1.10,2013-06-01 17:25:00,
2013-06-01 12:40:00,76.1,60.0,29.61,SSW,193,4.0,14.0,58,0.00,,,0.00,weatherlink.com 1.10,2013-06-01 17:40:00,
2013-06-01 12:55:00,76.5,61.0,29.60,SSW,200,6.0,14.0,59,0.00,,,0.00,weatherlink.com 1.10,2013-06-01 17:55:00,
2013-06-01 13:10:00,76.7,62.0,29.60,SSW,194,3.0,14.0,61,0.00,,,0.00,weatherlink.com 1.10,2013-06-01 18:10:00,
2013-06-01 13:25:00,77.1,60.0,29.60,South,185,2.0,14.0,56,0.00,,,0.00,weatherlink.com 1.10,2013-06-01 18:25:00,
2013-06-01 13:40:00,77.1,57.0,29.60,West,276,8.0,20.0,50,0.00,,,0.00,weatherlink.com 1.10,2013-06-01 18:40:00,
2013-06-01 13:55:00,77.4,59.0,29.59,SW,222,6.0,16.0,53,0.00,,,0.00,weatherlink.com 1.10,2013-06-01 18:55:00,
2013-06-01 14:10:00,77.3,59.0,29.59,South,183,6.0,14.0,54,0.00,,,0.00,weatherlink.com 1.10,2013-06-01 19:10:00,
2013-06-01 14:25:00,77.0,60.0,29.59,SW,233,3.0,10.0,57,0.00,,,0.00,weatherlink.com 1.10,2013-06-01 19:25:00,
2013-06-01 14:40:00,77.2,62.0,29.59,West,259,6.0,17.0,59,0.00,,,0.00,weatherlink.com 1.10,2013-06-01 19:40:00,
2013-06-01 14:55:00,76.3,59.0,29.59,NW,307,8.0,16.0,56,0.00,,,0.00,weatherlink.com 1.10,2013-06-01 19:55:00,
2013-06-01 15:10:00,75.8,59.0,29.59,West,259,12.0,19.0,56,0.00,,,0.00,weatherlink.com 1.10,2013-06-01 20:10:00,
2013-06-01 15:25:00,75.5,61.0,29.59,WNW,284,11.0,15.0,61,0.00,,,0.00,weatherlink.com 1.10,2013-06-01 20:25:00,
2013-06-01 15:40:00,74.9,60.0,29.60,West,279,8.0,15.0,61,0.00,,,0.00,weatherlink.com 1.10,2013-06-01 20:40:00,
2013-06-01 15:55:00,74.8,60.0,29.60,SSW,200,6.0,14.0,60,0.00,,,0.00,weatherlink.com 1.10,2013-06-01 20:55:00,
2013-06-01 16:10:00,74.6,59.0,29.60,West,264,12.0,17.0,58,0.00,,,0.00,weatherlink.com 1.10,2013-06-01 21:10:00,
2013-06-01 16:25:00,74.1,59.0,29.60,West,273,9.0,16.0,60,0.00,,,0.00,weatherlink.com 1.10,2013-06-01 21:25:00,
2013-06-01 16:40:00,72.7,61.0,29.60,WSW,250,5.0,15.0,66,0.00,,,0.00,weatherlink.com 1.10,2013-06-01 21:40:00,
2013-06-01 16:55:00,72.4,61.0,29.60,WNW,283,8.0,14.0,68,0.00,,,0.00,weatherlink.com 1.10,2013-06-01 21:55:00,
2013-06-01 17:10:00,71.8,61.0,29.61,West,266,9.0,17.0,69,0.00,,,0.00,weatherlink.com 1.10,2013-06-01 22:10:00,
2013-06-01 17:25:00,70.7,60.0,29.61,West,262,10.0,17.0,70,0.00,,,0.00,weatherlink.com 1.10,2013-06-01 22:25:00,
2013-06-01 17:40:00,70.4,61.0,29.61,West,280,8.0,18.0,72,0.00,,,0.00,weatherlink.com 1.10,2013-06-01 22:40:00,
2013-06-01 17:55:00,71.2,62.0,29.61,WSW,257,13.0,13.0,72,0.00,,,0.00,weatherlink.com 1.10,2013-06-01 22:55:00,
2013-06-01 18:10:00,70.5,61.0,29.62,West,264,6.0,14.0,72,0.00,,,0.00,weatherlink.com 1.10,2013-06-01 23:10:00,
2013-06-01 18:25:00,70.7,60.0,29.62,West,273,12.0,15.0,70,0.00,,,0.00,weatherlink.com 1.10,2013-06-01 23:25:00,
2013-06-01 18:40:00,69.6,61.0,29.62,West,260,4.0,11.0,73,0.00,,,0.00,weatherlink.com 1.10,2013-06-01 23:40:00,
2013-06-01 18:55:00,69.2,60.0,29.62,WSW,247,7.0,10.0,73,0.00,,,0.00,weatherlink.com 1.10,2013-06-01 23:55:00,
2013-06-01 19:10:00,69.4,61.0,29.62,WSW,255,4.0,10.0,74,0.00,,,0.00,weatherlink.com 1.10,2013-06-02 00:10:00,
2013-06-01 19:25:00,70.0,61.0,29.63,West,267,2.0,8.0,74,0.00,,,0.00,weatherlink.com 1.10,2013-06-02 00:25:00,
2013-06-01 19:40:00,68.9,60.0,29.64,West,276,7.0,13.0,73,0.00,,,0.00,weatherlink.com 1.10,2013-06-02 00:40:00,
2013-06-01 19:55:00,68.2,60.0,29.64,West,259,4.0,12.0,75,0.00,,,0.00,weatherlink.com 1.10,2013-06-02 00:55:00,
2013-06-01 20:10:00,67.9,60.0,29.64,West,273,2.0,9.0,77,0.00,,,0.00,weatherlink.com 1.10,2013-06-02 01:10:00,
2013-06-01 20:25:00,67.3,61.0,29.64,West,263,4.0,7.0,79,0.00,,,0.00,weatherlink.com 1.10,2013-06-02 01:25:00,
2013-06-01 20:40:00,66.5,61.0,29.64,West,272,2.0,5.0,81,0.00,,,0.00,weatherlink.com 1.10,2013-06-02 01:40:00,
2013-06-01 20:55:00,66.3,61.0,29.64,West,264,2.0,7.0,82,0.00,,,0.00,weatherlink.com 1.10,2013-06-02 01:55:00,
2013-06-01 21:10:00,66.2,61.0,29.65,WSW,248,3.0,8.0,83,0.00,,,0.00,weatherlink.com 1.10,2013-06-02 02:10:00,
2013-06-01 21:25:00,66.1,61.0,29.66,West,276,1.0,5.0,84,0.00,,,0.00,weatherlink.com 1.10,2013-06-02 02:25:00,
2013-06-01 21:40:00,66.0,61.0,29.66,West,259,2.0,4.0,84,0.00,,,0.00,weatherlink.com 1.10,2013-06-02 02:40:00,
2013-06-01 21:55:00,66.0,61.0,29.66,WSW,256,2.0,5.0,85,0.00,,,0.00,weatherlink.com 1.10,2013-06-02 02:55:00,
2013-06-01 22:11:00,65.8,61.0,29.67,West,262,3.0,6.0,85,0.00,,,0.00,weatherlink.com 1.10,2013-06-02 03:11:00,
2013-06-01 22:26:00,65.1,61.0,29.68,West,269,0.0,3.0,87,0.00,,,0.00,weatherlink.com 1.10,2013-06-02 03:26:00,
2013-06-01 22:41:00,64.5,61.0,29.68,West,260,3.0,5.0,88,0.00,,,0.00,weatherlink.com 1.10,2013-06-02 03:41:00,
2013-06-01 22:56:00,64.1,61.0,29.68,West,262,2.0,3.0,89,0.00,,,0.00,weatherlink.com 1.10,2013-06-02 03:56:00,
2013-06-01 23:11:00,63.5,61.0,29.68,WSW,257,2.0,3.0,90,0.00,,,0.00,weatherlink.com 1.10,2013-06-02 04:11:00,
2013-06-01 23:26:00,62.8,60.0,29.68,WSW,257,2.0,2.0,91,0.00,,,0.00,weatherlink.com 1.10,2013-06-02 04:26:00,
2013-06-01 23:41:00,62.4,60.0,29.69,SW,228,1.0,2.0,92,0.00,,,0.00,weatherlink.com 1.10,2013-06-02 04:41:00,
2013-06-01 23:56:00,62.1,60.0,29.69,WSW,248,3.0,4.0,94,0.00,,,0.00,weatherlink.com 1.10,2013-06-02 04:56:00,